Location: Lane
(33.5226°N, 79.8788°W)
Time: 19:00:48
(UTC+00:00)

Explorer 11/Cluster Stage 4 - Pass Details

Date: 04 October 2022
Orbit: 466 x 1247 km, 28.8° (Epoch: 01 December)

Event Time Altitude Azimuth Distance (km) Brightness Sun altitude
Rises 13:28:37 0° 202° (SSW) 4,034 10.3 25.8°
Reaches altitude 10° 13:32:49 10° 181° (S) 3,157 10.1 26.6°
Maximum altitude 13:37:10 16° 148° (SSE) 2,792 10.6 27.4°
Drops below altitude 10° 13:41:35 10° 115° (ESE) 3,205 11.5 28.2°
Sets 13:45:52 0° 95° (E) 4,128 11.3 29.0°
